Location: Austin
(30.3000°N, 97.7500°W)
Time: 04:15:46
(UTC-05:00)

Cosmos 1703 Rocket - Pass Details

Date: 18 March 2023
Orbit: 605 x 631 km, 82.5° (Epoch: 01 April)

Event Time Altitude Azimuth Distance (km) Brightness Sun altitude
Rises 21:16:40 0° 359° (N) 2,918 7.2 -21.3°
Reaches altitude 10° 21:18:58 10° 4° (N) 2,004 6.3 -21.8°
Enters shadow 21:22:15 43° 34° (NE) 882 4.1 -22.5°
